timestamp,surface_pressure_avg,surface_temp_avg,battery_voltage,lat,long
2023-06-30 00:09:00+00:00,244.6531,11.09,12.97,47.84626,-54.09684
2023-06-30 00:19:00+00:00,238.4214,11.1,12.81,47.84626,-54.09684
2023-06-30 00:29:00+00:00,232.6448,11.1,12.81,47.84626,-54.09684
2023-06-30 00:39:00+00:00,228.1631,11.09,12.81,47.84626,-54.09684
2023-06-30 00:49:00+00:00,223.8264,11.08,12.81,47.84626,-54.09684
2023-06-30 00:59:00+00:00,219.9448,11.06,12.81,47.84626,-54.09684
2023-06-30 01:09:00+00:00,217.8581,11.06,12.81,47.84626,-54.09684
2023-06-30 01:19:00+00:00,216.3931,11.05,12.73,47.84626,-54.09684
2023-06-30 01:29:00+00:00,214.7831,11.03,12.73,47.84626,-54.09684
2023-06-30 01:39:00+00:00,212.2681,11.01,12.73,47.84626,-54.09684
2023-06-30 01:49:00+00:00,212.2381,11.0,12.73,47.84626,-54.09684
2023-06-30 01:59:00+00:00,211.8965,11.0,12.73,47.84626,-54.09684
2023-06-30 02:09:00+00:00,207.5898,11.05,12.73,47.84626,-54.09684
2023-06-30 02:19:00+00:00,202.9514,11.08,12.73,47.84626,-54.09684
2023-06-30 02:29:00+00:00,203.4448,11.09,12.73,47.84626,-54.09684
2023-06-30 02:39:00+00:00,204.1232,11.1,12.73,47.84626,-54.09684
2023-06-30 02:49:00+00:00,201.3481,11.1,12.73,47.84626,-54.09684
2023-06-30 02:59:00+00:00,201.0514,11.12,12.73,47.84626,-54.09684
2023-06-30 03:09:00+00:00,205.7031,11.18,12.73,47.84626,-54.09684
2023-06-30 03:19:00+00:00,205.6264,11.2,12.73,47.84626,-54.09684
2023-06-30 03:29:00+00:00,204.5514,11.2,12.73,47.84626,-54.09684
2023-06-30 03:39:00+00:00,207.6048,11.2,12.73,47.84626,-54.09684
2023-06-30 03:49:00+00:00,208.4681,11.26,12.73,47.84626,-54.09684
2023-06-30 03:59:00+00:00,205.5448,11.29,12.73,47.84626,-54.09684
2023-06-30 04:09:00+00:00,203.2364,11.3,12.73,47.84626,-54.09684
2023-06-30 04:19:00+00:00,205.3698,11.3,12.65,47.84626,-54.09684
2023-06-30 04:29:00+00:00,207.6248,11.3,12.65,47.84626,-54.09684
2023-06-30 04:39:00+00:00,207.2681,11.3,12.65,47.84626,-54.09684
2023-06-30 04:49:00+00:00,209.5298,11.3,12.65,47.84626,-54.09684
2023-06-30 04:59:00+00:00,216.4248,11.3,12.65,47.84626,-54.09684
2023-06-30 05:09:00+00:00,220.8931,11.3,12.65,47.84626,-54.09684
2023-06-30 05:19:00+00:00,222.9348,11.3,12.65,47.84626,-54.09684
2023-06-30 05:29:00+00:00,228.3331,11.3,12.65,47.84626,-54.09684
2023-06-30 05:39:00+00:00,233.2248,11.3,12.65,47.84626,-54.09684
2023-06-30 05:49:00+00:00,236.9398,11.32,12.65,47.84626,-54.09684
2023-06-30 05:59:00+00:00,242.8281,11.34,12.65,47.84626,-54.09684
2023-06-30 06:09:00+00:00,248.8148,11.34,12.65,47.84626,-54.09684
2023-06-30 06:19:00+00:00,253.3831,11.33,12.65,47.84626,-54.09684
2023-06-30 06:29:00+00:00,260.0331,11.33,12.65,47.84626,-54.09684
2023-06-30 06:39:00+00:00,267.8681,11.34,12.65,47.84626,-54.09684
2023-06-30 06:49:00+00:00,272.9881,11.3,12.65,47.84626,-54.09684
2023-06-30 06:59:00+00:00,277.0514,11.3,12.65,47.84626,-54.09684
2023-06-30 07:09:00+00:00,282.7463,11.3,12.65,47.84626,-54.09684
2023-06-30 07:19:00+00:00,285.9298,11.29,12.57,47.84626,-54.09684
2023-06-30 07:29:00+00:00,286.6481,11.27,12.57,47.84626,-54.09684
2023-06-30 07:39:00+00:00,289.8497,11.25,12.57,47.84626,-54.09684
2023-06-30 07:49:00+00:00,294.2714,11.24,12.57,47.84626,-54.09684
2023-06-30 07:59:00+00:00,295.6547,11.25,12.57,47.84626,-54.09684
2023-06-30 08:09:00+00:00,297.2714,11.23,12.57,47.84626,-54.09684
2023-06-30 08:19:00+00:00,301.1463,11.23,12.57,47.84626,-54.09684
2023-06-30 08:29:00+00:00,304.803,11.23,12.57,47.84626,-54.09684
2023-06-30 08:39:00+00:00,303.0148,11.21,12.57,47.84626,-54.09684
2023-06-30 08:49:00+00:00,303.9264,11.23,12.57,47.84626,-54.09684
2023-06-30 08:59:00+00:00,307.078,11.25,12.57,47.84626,-54.09684
2023-06-30 09:09:00+00:00,304.6397,11.25,12.57,47.84626,-54.09684
2023-06-30 09:19:00+00:00,299.1763,11.27,12.57,47.84626,-54.09684
2023-06-30 09:29:00+00:00,298.558,11.28,12.57,47.84626,-54.09684
2023-06-30 09:39:00+00:00,301.2797,11.29,12.57,47.84626,-54.09684
2023-06-30 09:49:00+00:00,297.673,11.28,12.57,47.84626,-54.09684
2023-06-30 09:59:00+00:00,296.113,11.28,12.57,47.84626,-54.09684
2023-06-30 10:09:00+00:00,297.1146,11.28,12.57,47.84626,-54.09684
2023-06-30 10:19:00+00:00,294.9131,11.28,12.65,47.84626,-54.09684
2023-06-30 10:29:00+00:00,288.2747,11.29,12.65,47.84626,-54.09684
2023-06-30 10:39:00+00:00,285.5197,11.3,12.65,47.84626,-54.09684
2023-06-30 10:49:00+00:00,281.6914,11.3,12.65,47.84626,-54.09684
2023-06-30 10:59:00+00:00,274.0881,11.3,12.65,47.84626,-54.09684
2023-06-30 11:09:00+00:00,265.9381,11.3,12.65,47.84626,-54.09684
2023-06-30 11:19:00+00:00,263.0831,11.3,12.81,47.84626,-54.09684
2023-06-30 11:29:00+00:00,257.9514,11.3,12.81,47.84626,-54.09684
2023-06-30 11:39:00+00:00,250.9814,11.3,12.81,47.84626,-54.09684
2023-06-30 11:49:00+00:00,246.6147,11.3,12.81,47.84626,-54.09684
2023-06-30 11:59:00+00:00,242.2664,11.34,12.81,47.84626,-54.09684
2023-06-30 12:09:00+00:00,233.2214,11.39,12.81,47.84626,-54.09684
2023-06-30 12:19:00+00:00,224.2914,11.4,13.29,47.84626,-54.09684
2023-06-30 12:29:00+00:00,219.8298,11.43,13.29,47.84626,-54.09684
2023-06-30 12:39:00+00:00,215.2347,11.41,13.29,47.84626,-54.09684
2023-06-30 12:49:00+00:00,210.6714,11.4,13.29,47.84626,-54.09684
2023-06-30 12:59:00+00:00,208.5198,11.4,13.29,47.84626,-54.09684
2023-06-30 13:09:00+00:00,205.2115,11.4,13.29,47.84626,-54.09684
2023-06-30 13:19:00+00:00,201.5281,11.4,13.44,47.84626,-54.09684
2023-06-30 13:29:00+00:00,200.138,11.49,13.44,47.84626,-54.09684
2023-06-30 13:39:00+00:00,198.5831,11.5,13.44,47.84626,-54.09684
2023-06-30 13:49:00+00:00,195.2831,11.53,13.44,47.84626,-54.09684
2023-06-30 13:59:00+00:00,193.9482,11.57,13.44,47.84626,-54.09684
2023-06-30 14:09:00+00:00,193.8915,11.57,13.44,47.84626,-54.09684
2023-06-30 14:19:00+00:00,191.1548,11.56,13.76,47.84626,-54.09684
2023-06-30 14:29:00+00:00,190.0265,11.51,13.76,47.84626,-54.09684
2023-06-30 14:39:00+00:00,192.1648,11.5,13.76,47.84626,-54.09684
2023-06-30 14:49:00+00:00,192.2531,11.5,13.76,47.84626,-54.09684
2023-06-30 14:59:00+00:00,189.6698,11.5,13.76,47.84626,-54.09684
2023-06-30 15:09:00+00:00,189.1815,11.5,13.76,47.84626,-54.09684
2023-06-30 15:19:00+00:00,190.2281,11.5,13.76,47.84626,-54.09684
2023-06-30 15:29:00+00:00,187.8615,11.55,13.76,47.84626,-54.09684
2023-06-30 15:39:00+00:00,186.5432,11.6,13.76,47.84626,-54.09684
2023-06-30 15:49:00+00:00,192.4315,11.6,13.76,47.84626,-54.09684
2023-06-30 15:59:00+00:00,197.0281,11.62,13.76,47.84626,-54.09684
2023-06-30 16:09:00+00:00,197.0764,11.65,13.76,47.84626,-54.09684
2023-06-30 16:19:00+00:00,202.4247,11.65,14.08,47.84626,-54.09684
2023-06-30 16:29:00+00:00,210.7014,11.6,14.08,47.84626,-54.09684
2023-06-30 16:39:00+00:00,214.5098,11.6,14.08,47.84626,-54.09684
2023-06-30 16:49:00+00:00,216.5248,11.6,14.08,47.84626,-54.09684
2023-06-30 16:59:00+00:00,220.5998,11.6,14.08,47.84626,-54.09684
2023-06-30 17:09:00+00:00,224.5248,11.6,14.08,47.84626,-54.09684
2023-06-30 17:19:00+00:00,227.1964,11.59,13.92,47.84626,-54.09684
2023-06-30 17:29:00+00:00,230.358,11.56,13.92,47.84626,-54.09684
2023-06-30 17:39:00+00:00,234.0197,11.55,13.92,47.84626,-54.09684
2023-06-30 17:49:00+00:00,237.4565,11.57,13.92,47.84626,-54.09684
2023-06-30 17:59:00+00:00,243.5464,11.57,13.92,47.84626,-54.09684
2023-06-30 18:09:00+00:00,251.8214,11.54,13.92,47.84626,-54.09684
2023-06-30 18:19:00+00:00,259.1064,11.5,13.76,47.84626,-54.09684
2023-06-30 18:29:00+00:00,264.1831,11.5,13.76,47.84626,-54.09684
2023-06-30 18:39:00+00:00,271.218,11.46,13.76,47.84626,-54.09684
2023-06-30 18:49:00+00:00,278.4347,11.15,13.76,47.84626,-54.09684
2023-06-30 18:59:00+00:00,284.1248,10.9,13.76,47.84626,-54.09684
2023-06-30 19:09:00+00:00,288.2764,10.9,13.76,47.84626,-54.09684
2023-06-30 19:19:00+00:00,293.923,10.9,13.6,47.84626,-54.09684
2023-06-30 19:29:00+00:00,299.2947,10.9,13.6,47.84626,-54.09684
2023-06-30 19:39:00+00:00,305.7447,10.8,13.6,47.84626,-54.09684
2023-06-30 19:49:00+00:00,312.7298,10.8,13.6,47.84626,-54.09684
2023-06-30 19:59:00+00:00,318.9747,10.89,13.6,47.84626,-54.09684
2023-06-30 20:09:00+00:00,322.6246,11.07,13.6,47.84626,-54.09684
2023-06-30 20:19:00+00:00,328.2963,11.2,13.44,47.84626,-54.09684
2023-06-30 20:29:00+00:00,332.7563,11.31,13.44,47.84626,-54.09684
2023-06-30 20:39:00+00:00,335.2379,11.49,13.44,47.84626,-54.09684
2023-06-30 20:49:00+00:00,337.4063,11.6,13.44,47.84626,-54.09684
2023-06-30 20:59:00+00:00,338.7429,11.62,13.44,47.84626,-54.09684
2023-06-30 21:09:00+00:00,338.0147,11.65,13.44,47.84626,-54.09684
2023-06-30 21:19:01+00:00,336.713,11.61,13.29,47.84626,-54.09684
2023-06-30 21:29:01+00:00,335.9747,11.6,13.29,47.84626,-54.09684
2023-06-30 21:39:01+00:00,333.0763,11.6,13.29,47.84626,-54.09684
2023-06-30 21:49:01+00:00,330.6013,11.56,13.29,47.84626,-54.09684
2023-06-30 21:59:01+00:00,331.1980000000001,11.5,13.29,47.84626,-54.09684
2023-06-30 22:09:01+00:00,330.4613,11.5,13.29,47.84626,-54.09684
2023-06-30 22:19:00+00:00,326.408,11.5,13.05,47.84626,-54.09684
2023-06-30 22:29:00+00:00,322.71299999999997,11.5,13.05,47.84626,-54.09684
2023-06-30 22:39:00+00:00,320.1313,11.56,13.05,47.84626,-54.09684
2023-06-30 22:49:00+00:00,316.7147,11.59,13.05,47.84626,-54.09684
2023-06-30 22:59:00+00:00,312.4197,11.6,13.05,47.84626,-54.09684
2023-06-30 23:09:00+00:00,310.0947,11.6,13.05,47.84626,-54.09684
2023-06-30 23:19:00+00:00,303.4297,11.61,12.89,47.84626,-54.09684
2023-06-30 23:29:00+00:00,296.6481,11.66,12.89,47.84626,-54.09684
2023-06-30 23:39:00+00:00,290.8279,11.69,12.89,47.84626,-54.09684
2023-06-30 23:49:00+00:00,283.4314,11.7,12.89,47.84626,-54.09684
2023-06-30 23:59:00+00:00,275.6281,11.7,12.89,47.84626,-54.09684
